AZU8705 KFLL-SBKP

Flight info

Callsign AZU8705
Flight time N/A
Altitude 37000
Route SNAPR2 SUMAC Y443 RUMFO Y441 JUELE DCT KODIX UL212 CDO UT20 POKAK UL216 AGMEX UL304 KOSMU UM417 LAIKA/N0468F390 UZ6 UTPAM UZ87 UBMOR DCT UTLOT
Aircraft A339/H-SADE1E2E3GHIJ3J5M1P2RWXY/LB2D1

Departure

Time N/A
Airport Fort Lauderdale Hollywood International Airport (KFLL)

Arrival

Time 2026-04-27 11:20
Airport Viracopos International Airport (SBKP)
Time Latitude Longitude Altitude Speed Heading
2026-04-27 10:36 -20.24171 -49.91885 39035 ft 494 kts 141°
2026-04-27 10:36 -20.26797 -49.89550 39031 ft 494 kts 141°
2026-04-27 10:37 -20.32073 -49.84855 39036 ft 494 kts 141°
2026-04-27 10:37 -20.37342 -49.80161 39035 ft 495 kts 141°
2026-04-27 10:38 -20.42652 -49.75426 39039 ft 495 kts 141°
2026-04-27 10:38 -20.47939 -49.70707 39038 ft 496 kts 141°
2026-04-27 10:39 -20.53227 -49.65982 39040 ft 496 kts 141°
2026-04-27 10:39 -20.58536 -49.61235 39041 ft 496 kts 141°
2026-04-27 10:40 -20.63817 -49.56508 39038 ft 496 kts 141°
2026-04-27 10:40 -20.69076 -49.51797 39037 ft 496 kts 141°
2026-04-27 10:41 -20.74373 -49.47048 39038 ft 495 kts 141°
2026-04-27 10:41 -20.79639 -49.42319 39039 ft 496 kts 142°
2026-04-27 10:42 -20.84929 -49.37567 39034 ft 497 kts 142°
2026-04-27 10:42 -20.90242 -49.32789 39034 ft 497 kts 141°
2026-04-27 10:43 -20.94724 -49.28756 39034 ft 497 kts 141°
2026-04-27 10:43 -21.00013 -49.23991 39033 ft 497 kts 141°
2026-04-27 10:44 -21.04109 -49.20299 39035 ft 497 kts 141°
2026-04-27 10:44 -21.08640 -49.16211 39040 ft 497 kts 141°
2026-04-27 10:45 -21.13903 -49.11456 39039 ft 497 kts 141°
2026-04-27 10:45 -21.17998 -49.07755 39041 ft 497 kts 141°
2026-04-27 10:46 -21.23263 -49.02990 39037 ft 497 kts 141°
2026-04-27 10:46 -21.27038 -48.99572 39033 ft 497 kts 141°
2026-04-27 10:47 -21.31656 -48.95387 39039 ft 497 kts 141°
2026-04-27 10:47 -21.36944 -48.90591 39039 ft 498 kts 141°
2026-04-27 10:48 -21.41148 -48.86775 38627 ft 499 kts 141°
2026-04-27 10:48 -21.43809 -48.84358 38079 ft 500 kts 141°
2026-04-27 10:48 -21.46438 -48.81970 37508 ft 500 kts 141°
2026-04-27 10:49 -21.49113 -48.79537 36928 ft 500 kts 141°
2026-04-27 10:49 -21.51771 -48.77119 36345 ft 499 kts 141°
2026-04-27 10:49 -21.54409 -48.74717 35723 ft 500 kts 141°
2026-04-27 10:49 -21.57043 -48.72319 35114 ft 499 kts 141°
2026-04-27 10:50 -21.59709 -48.69889 34491 ft 499 kts 141°
2026-04-27 10:50 -21.62358 -48.67477 33890 ft 499 kts 141°
2026-04-27 10:50 -21.65004 -48.65062 33272 ft 499 kts 141°
2026-04-27 10:50 -21.67659 -48.62639 32674 ft 499 kts 141°
2026-04-27 10:51 -21.70276 -48.60249 32074 ft 499 kts 141°
2026-04-27 10:51 -21.72926 -48.57829 31631 ft 495 kts 141°
2026-04-27 10:51 -21.75517 -48.55460 31266 ft 490 kts 141°
2026-04-27 10:51 -21.78117 -48.53081 30876 ft 486 kts 141°
2026-04-27 10:52 -21.80669 -48.50745 30487 ft 482 kts 141°
2026-04-27 10:52 -21.83208 -48.48420 30097 ft 478 kts 141°
2026-04-27 10:52 -21.85754 -48.46088 29705 ft 474 kts 141°
2026-04-27 10:52 -21.88244 -48.43808 29321 ft 470 kts 141°
2026-04-27 10:53 -21.90740 -48.41519 28927 ft 467 kts 141°
2026-04-27 10:53 -21.95678 -48.36988 28151 ft 461 kts 141°
2026-04-27 10:53 -21.98101 -48.34764 27766 ft 458 kts 141°
2026-04-27 10:54 -22.00531 -48.32532 27381 ft 455 kts 141°
2026-04-27 10:54 -22.02910 -48.30346 27003 ft 452 kts 141°
2026-04-27 10:54 -22.04124 -48.29229 26807 ft 450 kts 141°
2026-04-27 10:54 -22.06515 -48.27031 26428 ft 447 kts 141°
2026-04-27 10:55 -22.08560 -48.25149 26100 ft 445 kts 141°
2026-04-27 10:55 -22.10126 -48.23709 25846 ft 443 kts 141°
2026-04-27 10:55 -22.12465 -48.21557 25468 ft 440 kts 141°
2026-04-27 10:55 -22.14326 -48.19843 25169 ft 438 kts 141°
2026-04-27 10:56 -22.16643 -48.17707 24798 ft 435 kts 141°
2026-04-27 10:56 -22.18956 -48.15575 24421 ft 433 kts 141°
2026-04-27 10:56 -22.20081 -48.14537 24236 ft 431 kts 142°
2026-04-27 10:56 -22.22365 -48.12428 23861 ft 429 kts 142°
2026-04-27 10:57 -22.24241 -48.10698 23558 ft 427 kts 142°
2026-04-27 10:57 -22.25798 -48.09261 23301 ft 426 kts 142°
2026-04-27 10:57 -22.28057 -48.07173 22921 ft 424 kts 141°
2026-04-27 10:57 -22.30282 -48.05117 22544 ft 422 kts 142°
2026-04-27 10:58 -22.31577 -48.03920 22325 ft 421 kts 142°
2026-04-27 10:58 -22.33828 -48.01839 21958 ft 420 kts 142°
2026-04-27 10:58 -22.36044 -47.99790 21591 ft 419 kts 142°
2026-04-27 10:58 -22.37835 -47.98130 21288 ft 418 kts 141°
2026-04-27 10:59 -22.38309 -47.97691 21206 ft 417 kts 141°
2026-04-27 11:00 -22.41091 -47.95113 20738 ft 414 kts 141°
2026-04-27 11:00 -22.43298 -47.93066 20368 ft 433 kts 142°
2026-04-27 11:00 -22.45669 -47.90857 20058 ft 462 kts 140°
2026-04-27 11:01 -22.47977 -47.88407 20423 ft 469 kts 135°
2026-04-27 11:01 -22.50141 -47.85744 20577 ft 462 kts 131°
2026-04-27 11:01 -22.52147 -47.83100 20185 ft 452 kts 130°
2026-04-27 11:01 -22.54093 -47.80479 19624 ft 442 kts 130°
2026-04-27 11:02 -22.55990 -47.77922 19015 ft 434 kts 130°
2026-04-27 11:02 -22.57869 -47.75396 18374 ft 427 kts 130°
2026-04-27 11:02 -22.59733 -47.72900 17728 ft 420 kts 130°
2026-04-27 11:02 -22.60952 -47.71270 17289 ft 416 kts 130°
2026-04-27 11:03 -22.63360 -47.68051 16446 ft 411 kts 130°
2026-04-27 11:03 -22.65139 -47.65673 15952 ft 410 kts 130°
2026-04-27 11:03 -22.66929 -47.63283 15513 ft 408 kts 130°
2026-04-27 11:03 -22.68717 -47.60895 15101 ft 404 kts 131°
2026-04-27 11:04 -22.70587 -47.58669 14707 ft 399 kts 137°
2026-04-27 11:04 -22.72655 -47.56673 14316 ft 394 kts 142°
2026-04-27 11:04 -22.74808 -47.54834 13928 ft 391 kts 144°
2026-04-27 11:04 -22.76968 -47.53030 13540 ft 387 kts 144°
2026-04-27 11:05 -22.79080 -47.51266 13163 ft 383 kts 144°
2026-04-27 11:05 -22.81173 -47.49510 12790 ft 380 kts 144°
2026-04-27 11:05 -22.83275 -47.47741 12408 ft 377 kts 144°
2026-04-27 11:05 -22.85326 -47.46008 12114 ft 370 kts 143°
2026-04-27 11:06 -22.87336 -47.44305 12068 ft 357 kts 144°
2026-04-27 11:06 -22.89260 -47.42674 12072 ft 352 kts 144°
2026-04-27 11:06 -22.91186 -47.41042 12068 ft 352 kts 144°
2026-04-27 11:06 -22.93118 -47.39406 12069 ft 352 kts 144°
2026-04-27 11:07 -22.95066 -47.37756 12072 ft 352 kts 144°
2026-04-27 11:07 -22.96988 -47.36113 12064 ft 353 kts 141°
2026-04-27 11:07 -22.98170 -47.34862 12035 ft 351 kts 133°
2026-04-27 11:07 -23.00187 -47.32153 11664 ft 346 kts 128°
2026-04-27 11:08 -23.01648 -47.30065 11407 ft 341 kts 128°
2026-04-27 11:08 -23.01864 -47.29754 11369 ft 341 kts 128°
2026-04-27 11:08 -23.02701 -47.28557 11219 ft 338 kts 128°
2026-04-27 11:08 -23.04129 -47.26532 10975 ft 333 kts 128°
2026-04-27 11:09 -23.04388 -47.26168 10930 ft 333 kts 128°
2026-04-27 11:09 -23.05586 -47.24486 10729 ft 329 kts 129°
2026-04-27 11:09 -23.06988 -47.22526 10506 ft 324 kts 129°
2026-04-27 11:09 -23.08212 -47.20820 10233 ft 320 kts 129°
2026-04-27 11:10 -23.09160 -47.19498 9967 ft 317 kts 129°
2026-04-27 11:10 -23.10384 -47.17788 9631 ft 312 kts 129°
2026-04-27 11:10 -23.11634 -47.16044 9295 ft 307 kts 129°
2026-04-27 11:10 -23.12943 -47.14220 8802 ft 301 kts 129°
2026-04-27 11:11 -23.13655 -47.13226 8587 ft 296 kts 128°
2026-04-27 11:11 -23.14897 -47.11489 8210 ft 288 kts 128°
2026-04-27 11:11 -23.15659 -47.10424 7952 ft 285 kts 128°
2026-04-27 11:11 -23.16836 -47.08717 7503 ft 280 kts 119°
2026-04-27 11:12 -23.17336 -47.06729 7036 ft 271 kts 82°
2026-04-27 11:12 -23.16730 -47.04891 6600 ft 255 kts 45°
2026-04-27 11:12 -23.15334 -47.03862 6225 ft 236 kts 14°
2026-04-27 11:12 -23.13807 -47.03279 5862 ft 231 kts 19°
2026-04-27 11:13 -23.12355 -47.02502 5441 ft 231 kts 26°
2026-04-27 11:13 -23.10905 -47.01786 4960 ft 226 kts
2026-04-27 11:13 -23.09876 -47.01801 4641 ft 223 kts 343°
2026-04-27 11:13 -23.08327 -47.03050 4433 ft 201 kts 296°
2026-04-27 11:14 -23.07926 -47.04423 4448 ft 182 kts 283°
2026-04-27 11:14 -23.07883 -47.05796 4459 ft 186 kts 256°
2026-04-27 11:14 -23.08644 -47.06938 4445 ft 192 kts 215°
2026-04-27 11:14 -23.09953 -47.07319 4348 ft 200 kts 176°
2026-04-27 11:15 -23.11229 -47.06761 4072 ft 202 kts 140°
2026-04-27 11:15 -23.12205 -47.05665 3860 ft 200 kts 126°
2026-04-27 11:15 -23.12691 -47.04334 3815 ft 181 kts 85°
2026-04-27 11:15 -23.12292 -47.03151 3819 ft 167 kts 41°
2026-04-27 11:16 -23.11293 -47.02560 3852 ft 163 kts 14°
2026-04-27 11:16 -23.10179 -47.02279 3852 ft 162 kts
2026-04-27 11:16 -23.09063 -47.02436 3838 ft 160 kts 333°
2026-04-27 11:16 -23.08167 -47.03155 3851 ft 161 kts 316°
2026-04-27 11:17 -23.07422 -47.04079 3845 ft 163 kts 310°
2026-04-27 11:17 -23.06728 -47.05058 3822 ft 158 kts 308°
2026-04-27 11:17 -23.06085 -47.05980 3638 ft 150 kts 309°
2026-04-27 11:17 -23.05462 -47.06859 3434 ft 144 kts 310°
2026-04-27 11:18 -23.04836 -47.07721 3252 ft 144 kts 310°
2026-04-27 11:18 -23.04222 -47.08575 3086 ft 144 kts 310°
2026-04-27 11:18 -23.03599 -47.09445 2908 ft 144 kts 309°
2026-04-27 11:18 -23.02991 -47.10294 2694 ft 143 kts 310°
2026-04-27 11:19 -23.02375 -47.11159 2480 ft 143 kts 310°
2026-04-27 11:19 -23.01771 -47.12010 2277 ft 142 kts 310°
2026-04-27 11:19 -23.01183 -47.12830 2188 ft 126 kts 308°
2026-04-27 11:19 -23.00738 -47.13454 2187 ft 79 kts 307°
2026-04-27 11:20 -23.00463 -47.13836 2186 ft 51 kts 308°
2026-04-27 11:20 -23.00296 -47.14073 2186 ft 35 kts 307°
2026-04-27 11:20 -23.00153 -47.14268 2186 ft 31 kts 308°
2026-04-27 11:20 -23.00023 -47.14445 2185 ft 25 kts 309°
2026-04-27 11:21 -22.99920 -47.14588 2185 ft 21 kts 306°
2026-04-27 11:21 -22.99892 -47.14708 2185 ft 16 kts 251°
2026-04-27 11:21 -22.99966 -47.14801 2185 ft 16 kts 222°
2026-04-27 11:21 -23.00050 -47.14887 2185 ft 16 kts 222°
2026-04-27 11:22 -23.00140 -47.14969 2185 ft 16 kts 219°
2026-04-27 11:22 -23.00234 -47.15048 2185 ft 17 kts 217°
2026-04-27 11:22 -23.00328 -47.15127 2185 ft 17 kts 217°
2026-04-27 11:22 -23.00424 -47.15206 2185 ft 17 kts 217°
2026-04-27 11:23 -23.00489 -47.15260 2185 ft 17 kts 217°
2026-04-27 11:23 -23.00618 -47.15367 2185 ft 17 kts 217°
2026-04-27 11:23 -23.00706 -47.15436 2185 ft 14 kts 203°
2026-04-27 11:23 -23.00788 -47.15399 2185 ft 14 kts 127°
2026-04-27 11:24 -23.00847 -47.15311 2185 ft 13 kts 119°
2026-04-27 11:24 -23.00882 -47.15247 2185 ft 6 kts 123°
2026-04-27 11:24 -23.00900 -47.15219 2185 ft 4 kts 126°
2026-04-27 11:24 -23.00912 -47.15203 2185 ft 1 kts 129°
2026-04-27 11:25 -23.00917 -47.15196 2185 ft 1 kts 129°
2026-04-27 11:25 -23.00918 -47.15195 2185 ft 0 kts 129°